Regional Weather Roundup
Issued by NWS Upton, NY

Current Version | Previous Version | Text Only | Print | Product List | Glossary On
Versions: 1 2 3 4 5 6 7 8 9 10 11 12 13 14 15 16 17 18 19 20 21 22 23 24 25 26 27 28 29 30 31 32 33 34 35 36 37 38 39 40 41 42 43 44 45 46 47 48 49 50
000 ASUS41 KOKX 240208 RWROKX REGIONAL WEATHER ROUNDUP NATIONAL WEATHER SERVICE NEW YORK NY 1000 PM EDT SAT MAY 23 2015 NOTE: "FAIR" INDICATES FEW OR NO CLOUDS BELOW 12,000 FEET WITH NO SIGNIFICANT WEATHER AND/OR OBSTRUCTIONS TO VISIBILITY. NYZ071-072-176-178-NJZ106-104-240300- NEW YORK CITY METRO AREA CITY SKY/WX TMP DP RH WIND PRES REMARKS CENTRAL PARK CLEAR 59 41 51 CALM 30.37R LAGUARDIA APRT CLEAR 60 43 53 S7 30.34R KENNEDY INTL PTCLDY 57 47 69 S17 30.37R NEWARK/LIBERTY PTCLDY 62 38 40 S9 30.34R BRNX BOT. GARD N/A 55 43 62 E2 30.36R TETERBORO CLEAR 57 41 55 CALM 30.33R $$ NYZ177-179-078>081-240300- LONG ISLAND NEW YORK CITY SKY/WX TMP DP RH WIND PRES REMARKS FARMINGDALE CLEAR 54 45 71 SW7 30.36S ISLIP CLEAR 53 43 68 SW9 30.35R SHIRLEY CLEAR 54 43 66 SW8 30.37S WESTHAMPTON CLEAR 53 43 68 SW12 30.38R MONTAUK POINT N/A 54 41 61 SW9 30.37R $$ NYZ052-065-067-240300- HUDSON VALLEY CITY SKY/WX TMP DP RH WIND PRES REMARKS WHITE PLAINS CLEAR 52 43 71 SE3 30.34R NEWBURGH CLEAR 55 37 50 CALM 30.33S MONTGOMERY CLEAR 50 39 66 CALM 30.32S POUGHKEEPSIE CLEAR 52 35 52 CALM 30.31R ALBANY CLEAR 51 33 50 CALM 30.29F $$ NJZ001-105-106-008-010-013-015-019>022-104-240300- NEW JERSEY CITY SKY/WX TMP DP RH WIND PRES REMARKS NEWARK/LIBERTY PTCLDY 62 38 40 S9 30.34R TETERBORO CLEAR 57 41 55 CALM 30.33R CALDWELL CLEAR 58 32 37 CALM 30.34R MORRISTOWN PTCLDY 48 41 76 CALM 30.36R SOMERVILLE CLEAR 50 38 63 CALM 30.33R SUSSEX CLEAR 47 37 68 CALM 30.35R ANDOVER N/A 49 42 77 CALM 30.35R TRENTON CLEAR 59 32 36 SW3 30.36R MILLVILLE CLEAR 55 48 77 VRB3 30.39R ATLANTIC CITY CLEAR 56 45 66 S9 30.39R WRIGHTSTOWN CLEAR 52 37 57 S2 30.34R TOMS RIVER CLEAR N/A N/A N/A S6 30.38R BELMAR CLEAR 54 43 66 S3 30.37R $$ PAZ047>061-062-071-240300- EASTERN PENNSYLVANIA CITY SKY/WX TMP DP RH WIND PRES REMARKS PHILADELPHIA CLEAR 62 39 42 S8 30.38R ALLENTOWN CLEAR 55 32 41 SW5 30.35R SCRANTON CLEAR 52 34 50 S3 30.34R $$ CTZ002-004>006-009-010-012-RIZ004-006-007-MAZ004-011-015-240300- SOUTHERN NEW ENGLAND IN CT CITY SKY/WX TMP DP RH WIND PRES REMARKS BRADLEY INTL CLEAR 55 31 39 W7 30.29S HARTFORD CLEAR 55 34 45 S8 30.31R DANBURY CLEAR 50 35 56 CALM 30.34R WTRBRY/OXFORD CLEAR 52 34 50 SW5 30.35S BRIDGEPORT CLEAR 56 44 64 SW13 30.35R MERIDEN CLEAR 53 38 56 S6 30.33R NEW HAVEN CLEAR 54 44 69 SW9 30.34R CHESTER FAIR 52 43 71 SW7 30.34S GROTON CLEAR 53 43 68 SW12 30.34R WILLIMANTIC CLEAR 52 35 52 SW5 30.32R IN RI CITY SKY/WX TMP DP RH WIND PRES REMARKS PROVIDENCE CLEAR 54 32 43 SW9 30.32R BLOCK ISLAND CLEAR 52 41 66 SW14 30.35S WESTERLY CLEAR 54 40 59 SW7 30.35R IN MA CITY SKY/WX TMP DP RH WIND PRES REMARKS BOSTON CLEAR 57 27 31 SW8 30.29R WORCESTER CLEAR 50 27 40 W8 30.29S WESTFIELD CLEAR 47 36 65 CALM 30.30R PROVINCETOWN CLEAR 54 43 66 SW13G18 30.30S NANTUCKET CLEAR 51 44 77 SW14 30.35R $$ ANZ330-335-338-340-345-350-353-355-240300- COASTAL MARINE OBSERVATIONS STATION/POSITION TIME SKY/WX TEMP WIND PRES VSBY WAVE AIR SEA DIR/SP/G HT/PER (UTC) (F) (DEG/KT/KT) (MB) (MI) (FT/S) NY HARB ENTRANCE 0150 56 55 200/ 16/ 19 1027.5 3/ 4 4S FIRE IS 0103 54 N/A 4/ 4 20S FIRE ISLAND 0150 55 55 210/ 16/ 17 1028.1 3/ 4 GREAT SOUTH BAY 0100 56 63 230/ 14/ 16 N/A 23SW MTP 0150 54 53 230/ 16/ 17 1028.1 2/ 3 HUDSON CANYON NOT AVBL KINGS POINT 0100 57 57 190/ 7/ 13 1026.7 CENTRAL LI SOUND 0130 54 51 210/ 16/ 19 N/A EASTERN LI SOUND 0100 53 210/ 12/ 16 N/A ROBBINS REEF 0100 60 180/ 14/ 15 1026.0 $$ >>>>>>>>>>>>>>>>>>>>>>>>>>>> KEY <<<<<<<<<<<<<<<<<<<<<<<<<<< > < > SKY/WX - SKY CONDITION/PRESENT WEATHER < > TMP - TEMPERATURE IN FAHRENHEIT < > DP - DEWPOINT IN FAHRENHEIT < > RH - RELATIVE HUMIDITY IN PERCENT < > WIND - DIRECTION AND SPEED IN MPH < > PRES - MEAN SEA LEVEL PRESSURE IN INCHES OF HG < > WCI - WIND CHILL INDEX < > VSB - VISIBILITY IN MILES < > HX - HEAT INDEX < > TC - TEMPERATURE IN CELSIUS < > VRB - VARIABLE WIND DIRECTION < > < >>>>>>>>>>>>>>>>>>>>>>>>>>>> KEY <<<<<<<<<<<<<<<<<<<<<<<<<<<

USA.gov is the U.S. government's official web portal to all federal, state and local government web resources and services.